{"data":{"norad_id":57743,"intl_designator":"2023-131M","name":"STARLINK-30361","alt_names":[],"object_type":"PAYLOAD","status":"ACTIVE","operator":null,"country":"US","launch_date":"2023-09-01","launch_site_code":"AFETR","launch_vehicle":null,"mission":null,"orbit_class":"UNKNOWN","rcs_meters":null,"size_class":null,"mass_kg":null,"dimensions":null,"purposes":["comms"],"wikipedia_slug":null,"has_3d_model":false,"image_url":null,"decayed_at":null,"tle_current":{"epoch":"2026-09-19T09:33:58.067136Z","epoch_age_seconds":226274,"freshness":"STALE","line1":"1 57743U 23131M   26262.39858874  .00000707  00000+0  35234-4 0  9990","line2":"2 57743  43.0030 158.3221 0000950 297.6510  62.4245 15.27573189169539","mean_motion":15.27573189,"eccentricity":9.5e-5,"inclination_deg":43.003,"raan_deg":158.3221,"arg_perigee_deg":297.651,"mean_anomaly_deg":62.4245,"bstar":3.5234e-5,"rev_number":16953,"period_min":94.267169021386,"perigee_km":482.41767608306,"apogee_km":483.72130531629,"semimajor_km":6861.2064906997,"source":"CELESTRAK","updated_at":"2026-09-21T09:00:33.680756Z"}}}